OBJECT X, 61756

Orbit data source: Space-Track

You're viewing an Uncataloged Satellite

Recently launched and/or uncataloged satellites may have evolving metadata. Metadata may include but not limited to: Owner, Maufacturer, Bus, Motor, and Mission.

OBJECT X, 61756 is a satellite in SSO that was launched on Mon, 04 Nov 2024 UTC via a SOYUZ-2-1B launch vehicle from the Vostochny Cosmodrome (VOSTO). Unknown objects in Earth's orbit typically refer to objects detected orbiting the Earth but have not yet been identified or cataloged. These objects could be anything from previously untracked satellites, spent rocket stages, debris from satellite collisions, or even natural meteoroids temporarily captured by Earth's gravity.

Loading next visibility...
Identifier
61756, 2024-199X
Orbit
SSO
Country
Flag of TBDTBD
Related business
Manufacturer
Sputniks
Mission
Operational Commercial Communications
Bus & Motor
CUBESAT 3U?, Unknown motor
Mass
3 kg wet, 3 kg dry
Launch date (UTC)
2024-11-04 (2 years ago)
Launch vehicle
SOYUZ-2-1B
Launch site
Vostochny Cosmodrome (VOSTO)
Object type
Unknown
Shape & HBR
Box, 0.1 m
Radar Cross Section
0.035 m², Small (<0.1 m²)

Expand to show TLE details & history
Last TLE update: 12 hours ago

TLE from 12 hours ago
0 OBJECT X
1 61756U 24199X   26145.61125734  .00071537  00000-0  71553-3 0  9994
2 61756  97.2942  24.1328 0004049  29.1332 331.0153 15.65352395134263
Epoch: 2026-05-25T14:40Z
TLE epoch observation values (Epoch: 2026-05-25T14:40:12.634Z)
Latitude
-0.00001°
Longitude
-79.1164°
Altitude
372.989 km
Speed
7.687 km/s
True Right ascension
01h 36m 31s
True Declination
0° 00' 00"
Sunlit
Object was in daylight at epoch
Visualization orbit readout
Latitude
Unknown
Longitude
Unknown
Altitude
Unknown
Speed
Unknown
Apparent Right ascension
Unknown
Apparent Declination
Unknown
Sunlit
N/A
Visualization observer readout
Local Sidereal Time
11:38:45
Azimuth
Unknown
Elevation
Unknown
Doppler factor
Unknown
Orbital elements
Apogee altitude
371.858 km
Perigee altitude
366.394 km
Semi-major axis
6,747.263 km
Eccentricity
0.0004
Inclination
97.2942°
RAAN
24.1328°
Arg. of periapsis
29.1332°
True anomaly
330.99281°
Mean anomaly
331.0153°
Eccentric anomaly
331.00405°
Mean motion
3.91608 °/min
Orbital period
91.93 mins
BSTAR
0.00071553
Loading maneuver chart data...
Computing Atmospheric mass density...
Loading historical data...
Loading historical data...
Loading historical data...
Loading historical data...
Loading historical data...
Loading historical data...
Loading historical data...

Documentation

Showing up to 5 results
|